Regional Weather Roundup
Issued by NWS

Home | Current Version | Previous Version | Text Only | Print | Product List | Glossary Off
Versions: 1 2 3 4 5 6 7 8 9 10 11 12 13 14 15 16 17 18 19 20 21 22 23 24 25 26 27 28 29 30 31 32 33 34 35 36 37 38 39 40 41 42 43 44 45 46 47 48 49 50

000
ASUS44 KMEG 152310
RWRTN
TENNESSEE HOURLY STATE WEATHER ROUNDUP
NATIONAL WEATHER SERVICE MEMPHIS TN
600 PM CDT TUE APR 15 2014

TNZ002-004-019-021-049-052-054-088>092-160000-
WEST TENNESSEE

CITY           SKY/WX    TMP DP  RH WIND       PRES   REMARKS
MEMPHIS INTL   SUNNY     50  23  34 NW10      30.18F
NWS MEMPHIS      N/A     49 N/A N/A MISG        N/A
JACKSON        SUNNY     48  22  35 NE13      30.20R
DYERSBURG      SUNNY     46  21  36 NW9       30.22R
UNION CITY     SUNNY     45  23  42 N12       30.19S
PARIS          SUNNY     44  20  38 N8        30.19R
LEXINGTON      SUNNY     46  19  34 VRB5      30.16S
$$

TNZ008-025-027-028-033-062-065-066-160000-
NORTH MIDDLE TENNESSEE

CITY           SKY/WX    TMP DP  RH WIND       PRES   REMARKS
NASHVILLE      MOSUNNY   45  21  38 N15       30.18R
DICKSON        SUNNY     45  19  36 N14       30.17R
PORTLAND       SUNNY     39  21  48 NW13      30.17  WCI  32
CLARKSVILLE    MOSUNNY   45  23  42 N15       30.19R
SMYRNA         PTSUNNY   45  22  40 N17       30.19R
MURFREESBORO   MOSUNNY   46  22  39 N10       30.17
LIVINGSTON     PTSUNNY   40  21  46 N7        30.12
GALLATIN       PTSUNNY   44  22  42 N13       30.18
CROSSVILLE     PTSUNNY   39  22  50 N14G22    30.10R WCI  31
$$

TNZ061-075-076-078-094-096-097-160000-
SOUTH MIDDLE TENNESSEE

CITY           SKY/WX    TMP DP  RH WIND       PRES   REMARKS
LEWISBURG      SUNNY     45  23  42 N10       30.15R
FAYETTEVILLE   SUNNY     44  21  40 N17       30.12
TULLAHOMA      SUNNY     43  21  42 N16       30.13R
WINCHESTER     MOSUNNY   43  25  49 N10       30.13R
MCMINNVILLE    MOSUNNY   43  23  45 NW15      30.13R
COLUMBIA       SUNNY     46  28  49 N9        30.14S
SHELBYVILLE    SUNNY     45  25  45 N18       30.16R
$$

TNZ017-018-042-046-047-160000-
NORTHEAST TENNESSEE

CITY           SKY/WX    TMP DP  RH WIND       PRES   REMARKS
TRI CITIES     CLOUDY    37  27  67 N12       30.04R WCI  29
ELIZABETHTON   CLOUDY    34  27  75 CALM      30.02R
$$

TNZ012-013-036-069-073-074-160000-
CENTRAL EAST TENNESSEE

CITY           SKY/WX    TMP DP  RH WIND       PRES   REMARKS
KNOXVILLE      CLOUDY    41  29  62 N10       30.10R
OAK RIDGE      PTSUNNY   43  27  53 VRB5      30.12R
$$

TNZ083-085-099-160000-
SOUTHEAST TENNESSEE

CITY           SKY/WX    TMP DP  RH WIND       PRES   REMARKS
CHATTANOOGA    PTSUNNY   46  25  43 N14       30.11R
$$

SKY/WX REPORTED AS FAIR MEANS FEW OR NO CLOUDS BELOW
12 THOUSAND FEET.




USA.gov is the U.S. government's official web portal to all federal, state and local government web resources and services.